"Pseudo-MPEC" for P11JDJb

Created 2023 Sep 27 0:22:11 UT using Find_Orb

Click here for an explanation of pseudo-MPECs

 
 Astrometry: 
     P11JDJb* C2023 09 15[@@+kS/LAstrometrynChx,Hp0;GGYw8redacted;Pg`.uclickNF51
     P11JDJb  C2023 09 15vwhereZhogQu[ud4[f*kfE9iGL@_#-y1dN:`KN(@;Z;P/YdjEI[2F51
     P11JDJb  C2023 09 15HNforUo!u.X(aCl5]explanation-:1i4L#*W2=Acj8um@PA%%S-F51

Station data:
(F51) Pan-STARRS 1, Haleakala  (N20.707234 W156.255910)  US/Hawaii.
   Observers J. Bulger, T. Lowe, A. Schultz, M. Willman. Measurers K.
   Chambers, S. Chastel, T. de Boer, L. Denneau, J. Fairlamb, H. Flewelling,
   M. Huber, C.-C. Lin, E. Magnier, Y. Ramanjooloo, R. Wainscoat, R. Weryk.
   1.8-m Ritchey-Chrétien + CCD.

Orbital elements:  P11JDJb
   Perihelion 2023 Oct 17.74770 +/- 68.4 TT = 17:56:41 (JD 2460235.24770)
Epoch 2023 Sep 15.0 TT = JDT 2460202.5   Ju: 0.3771              AutoNEOCP
M 358.32425994 +/- 12               (J2000 ecliptic)
n   0.05117122 +/- 0.123            Peri.  305.15685 +/- 70
a   7.18542024 +/- 11.6             Node    54.60337 +/- 37
e   0.6850727 +/- 0.231             Incl.   19.98664 +/- 7
P  19.26                   H 18.91  G  0.15   U 11.3  SR
q 2.26288468 +/- 1.08    Q 12.1079558 +/- 345
From 3 observations 2023 Sept. 15 (26.6 min); mean residual 0".06
Residuals in arcseconds: 
230915 F51  .03+  .06-    230915 F51  .06-  .11+    230915 F51  .03+  .06-    

Ephemerides (geocentric):
Date (UTC) HH   RA             Dec           delta  r     elong  mag " sig PA
---- --------  ------------   ------------  ------ ------ -----  --- --------
2023 09 27 00  23 58 58.057   -33 15 19.17  1.3744 2.2714 145.3 22.2  28d  59
2023 09 27 01  23 58 56.360   -33 15 02.22  1.3744 2.2714 145.3 22.2  29d  60
2023 09 27 02  23 58 54.664   -33 14 45.24  1.3745 2.2713 145.3 22.2  29d  60
2023 09 27 03  23 58 52.969   -33 14 28.21  1.3746 2.2713 145.2 22.2  29d  61
2023 09 27 04  23 58 51.274   -33 14 11.15  1.3747 2.2713 145.2 22.2  29d  61
2023 09 27 05  23 58 49.580   -33 13 54.04  1.3747 2.2712 145.2 22.2  29d  62
2023 09 27 06  23 58 47.887   -33 13 36.90  1.3748 2.2712 145.2 22.2  29d  62
2023 09 27 07  23 58 46.195   -33 13 19.72  1.3749 2.2712 145.2 22.2  29d  62
2023 09 27 08  23 58 44.503   -33 13 02.50  1.3749 2.2711 145.2 22.2  29d  62
2023 09 27 09  23 58 42.812   -33 12 45.24  1.3750 2.2711 145.1 22.2  29d  62
2023 09 27 10  23 58 41.122   -33 12 27.94  1.3751 2.2711 145.1 22.2  28d  63
2023 09 27 11  23 58 39.432   -33 12 10.60  1.3752 2.2710 145.1 22.2  28d  63
2023 09 27 12  23 58 37.744   -33 11 53.22  1.3752 2.2710 145.1 22.2  28d  63
2023 09 27 13  23 58 36.056   -33 11 35.80  1.3753 2.2710 145.1 22.2  28d  63
2023 09 27 14  23 58 34.368   -33 11 18.35  1.3754 2.2709 145.1 22.2  28d  63
2023 09 27 15  23 58 32.682   -33 11 00.85  1.3755 2.2709 145.1 22.2  28d  63
2023 09 27 16  23 58 30.996   -33 10 43.32  1.3756 2.2709 145.0 22.2  28d  63
2023 09 27 17  23 58 29.311   -33 10 25.75  1.3756 2.2708 145.0 22.2  28d  63
2023 09 27 18  23 58 27.627   -33 10 08.13  1.3757 2.2708 145.0 22.2  28d  63
2023 09 27 19  23 58 25.944   -33 09 50.48  1.3758 2.2708 145.0 22.2  28d  63
2023 09 27 20  23 58 24.261   -33 09 32.79  1.3759 2.2707 145.0 22.2  28d  63
2023 09 27 21  23 58 22.580   -33 09 15.06  1.3759 2.2707 145.0 22.2  28d  63
2023 09 27 22  23 58 20.899   -33 08 57.29  1.3760 2.2707 144.9 22.2  28d  63
2023 09 27 23  23 58 19.219   -33 08 39.48  1.3761 2.2706 144.9 22.2  28d  63
2023 09 28 00  23 58 17.539   -33 08 21.63  1.3762 2.2706 144.9 22.2  28d  63
2023 09 28 01  23 58 15.861   -33 08 03.75  1.3763 2.2706 144.9 22.2  28d  63
2023 09 28 02  23 58 14.183   -33 07 45.82  1.3763 2.2705 144.9 22.2  28d  63
2023 09 28 03  23 58 12.506   -33 07 27.86  1.3764 2.2705 144.9 22.2  28d  63
2023 09 28 04  23 58 10.830   -33 07 09.85  1.3765 2.2705 144.8 22.2  28d  63
2023 09 28 05  23 58 09.155   -33 06 51.81  1.3766 2.2704 144.8 22.2  28d  63
2023 09 28 06  23 58 07.481   -33 06 33.73  1.3767 2.2704 144.8 22.2  28d  63
2023 09 28 07  23 58 05.807   -33 06 15.61  1.3767 2.2704 144.8 22.2  28d  63
2023 09 28 08  23 58 04.135   -33 05 57.45  1.3768 2.2703 144.8 22.2  29d  62
2023 09 28 09  23 58 02.463   -33 05 39.25  1.3769 2.2703 144.8 22.2  29d  62
2023 09 28 10  23 58 00.792   -33 05 21.01  1.3770 2.2703 144.7 22.2  29d  62
2023 09 28 11  23 57 59.122   -33 05 02.74  1.3771 2.2702 144.7 22.2  29d  62
2023 09 28 12  23 57 57.453   -33 04 44.42  1.3772 2.2702 144.7 22.2  29d  61
2023 09 28 13  23 57 55.784   -33 04 26.07  1.3772 2.2702 144.7 22.2  29d  61
2023 09 28 14  23 57 54.117   -33 04 07.67  1.3773 2.2701 144.7 22.2  29d  61
2023 09 28 15  23 57 52.450   -33 03 49.24  1.3774 2.2701 144.7 22.2  29d  60
2023 09 28 16  23 57 50.785   -33 03 30.77  1.3775 2.2701 144.6 22.2  30d  60
2023 09 28 17  23 57 49.120   -33 03 12.26  1.3776 2.2700 144.6 22.2  30d  60
2023 09 28 18  23 57 47.456   -33 02 53.71  1.3777 2.2700 144.6 22.2  30d  60
2023 09 28 19  23 57 45.793   -33 02 35.12  1.3778 2.2700 144.6 22.2  30d  60
2023 09 28 20  23 57 44.131   -33 02 16.50  1.3778 2.2700 144.6 22.2  31d  61
2023 09 28 21  23 57 42.470   -33 01 57.83  1.3779 2.2699 144.6 22.2  31d  61
2023 09 28 22  23 57 40.810   -33 01 39.13  1.3780 2.2699 144.5 22.2  31d  61
2023 09 28 23  23 57 39.150   -33 01 20.39  1.3781 2.2699 144.5 22.2  31d  61